User: anonymous   Login
Location: Finkenwalde
(53.3770°N, 14.6418°E)
Time: 19:00:11
(UTC+00:00)
Language:

Cosmos 2322 Rocket - Orbit

View from above orbital plane
View from above orbital plane
View from above satellite
View from above satellite

Ground track
Ground track

The orbit data is extracted from the following two-line orbital elements,

1 23705U 95058B   23150.46148530  .00000288  00000-0  17235-3 0  9995
2 23705  71.0200 149.1458 0014149 231.0005 128.9859 14.15231979424342
Epoch (UTC): 30 May 2023 11:04:32
Eccentricity: 0.0014149
inclination: 71.0200°
perigee height: 831 km
apogee height: 852 km
right ascension of ascending node: 149.1458°
argument of perigee: 231.0005°
revolutions per day: 14.15231979
mean anomaly at epoch: 128.9859°
orbit number at epoch: 42434

The dashed part of the orbit path shows where the satellite is in the earth's shadow,  

DLR